Location: Marcé
(47.5801°N, 0.3280°W)
Time: 21:50:57
(UTC+01:00)

Altair - Pass Details

Date: 18 December 2021
Orbit: 1501 x 1683 km, 47.2° (Epoch: 20 January)

Event Time Altitude Azimuth Distance (km) Brightness Sun altitude
Rises 10:27:14 0° 183° (S) 4,898 11.0 11.3°
Reaches altitude 10° 10:31:42 10° 166° (SSE) 3,892 11.3 11.8°
Maximum altitude 10:37:52 19° 127° (SE) 3,223 10.9 12.3°
Drops below altitude 10° 10:43:54 10° 88° (E) 3,819 10.1 12.9°
Sets 10:48:10 0° 72° (ENE) 4,775 10.2 13.3°
